Regional Weather Roundup
Issued by NWS

Home | Current Version | Previous Version | Text Only | Print | Product List | Glossary Off
Versions: 1 2 3 4 5 6 7 8 9 10 11 12 13 14 15 16 17 18 19 20 21 22 23 24 25 26 27 28 29 30 31 32 33 34 35 36 37 38 39 40 41 42 43 44 45 46 47 48 49 50

000
ASUS45 KSLC 191310
RWRUT

UTAH REGIONAL WEATHER ROUNDUP
NATIONAL WEATHER SERVICE SALT LAKE CITY UT
600 AM MST MON FEB 19 2018

UTZ001>011-023>025-191400-

NORTHERN UTAH

CITY           SKY/WX    TMP DP  RH WIND       PRES   REMARKS
BRIGHAM CITY   CLOUDY    28  24  88 S6        29.48F WCI  21
HILL AFB       LGT SNOW  25  25 100 NW20      29.43S FOG     WCI  11
LOGAN          CLOUDY    28  19  69 NW12      29.48S WCI  18
OGDEN          LGT SNOW  26  24  92 NW13      29.44F VSB 1   WCI  15
SALT LAKE CITY SNOW      28  26  92 N20       29.45S VSB 1/2 WCI  15
TOOELE VALLEY  LGT SNOW  28  28 100 N8        29.48F WCI  20
WENDOVER       MOCLDY    26  14  60 NW12      29.52S WCI  16
HEBER CITY       N/A     23  21  93 CALM      29.37S
WEST JORDAN    CLOUDY    25  25 100 NW17      29.44F WCI  12

$$

UTZ011>015-024>027-191400-

CENTRAL/NORTHEAST UTAH

CITY           SKY/WX    TMP DP  RH WIND       PRES   REMARKS
PROVO AIRPORT  CLOUDY    28  27  96 NW18      29.42F WCI  15
MOAB/CANYONLAN MOCLDY   N/A N/A N/A S22G31    29.30F
DELTA          CLOUDY    27  27 100 NW12      29.44R VSB 1   WCI  16
PRICE          CLOUDY    35  29  78 W9        29.28F WCI  28
RICHFIELD      MOCLDY    28  28 100 NE9       29.39R WCI  20
ROOSEVELT      LGT SNOW  32  30  93 W10       29.33S VSB 3/4 WCI  24
VERNAL         LGT SNOW  29  27  92 N12G21    29.31R VSB 1   WCI  19

$$

UTZ013>016-019>022-027-191400-

SOUTHERN UTAH

CITY           SKY/WX    TMP DP  RH WIND       PRES   REMARKS
BRYCE CANYON   MIX PCPN  30  15  53 SW39G49   29.39F WCI  13
CEDAR CITY     LGT SNOW  27  27 100 W14G23    29.43R VSB 1   WCI  16
MILFORD        SNOW      27  25  92 N17       29.43R VSB 1/2 WCI  14
ST GEORGE      CLOUDY    49  21  33 SW32G41   29.46R
HANKSVILLE     MOCLDY    48  19  32 SW26G41   29.35S
KANAB          PTCLDY    43  25  49 SW21G29   29.48F
BLANDING         N/A     42  29  59 S25G33    29.57S

$$

REGIONAL REPORTS     COLORADO/ARIZONA

CITY           SKY/WX    TMP DP  RH WIND       PRES   REMARKS
CRAIG, CO      CLOUDY    26  22  84 CALM      29.34F
GRAND JUNCTION MOCLDY    46  27  47 S22       29.38F
RIFLE, CO      CLOUDY    45  22  40 S15G25    29.39F
MONTROSE, CO   MOCLDY    41  27  57 S24G31    29.50F
CORTEZ, CO     MOCLDY    43  26  51 S12       29.56F
COLORADO CITY    N/A     41  27  56 SW22G32   29.51R
PAGE, AZ       PTCLDY    51  20  29 SW21G31   29.42F
GRAND CANYON   CLOUDY    35  30  82 SW24G38   29.54F WCI  23
KINGMAN, AZ    PTCLDY    44  27  51 SW28G36   29.61R
FLAGSTAFF, AZ  FLURRIES  35  29  78 SW39G51   29.59F WCI  20

$$

REGIONAL REPORTS    NEVADA/IDAHO/WYOMING

CITY           SKY/WX    TMP DP  RH WIND       PRES   REMARKS
LAS VEGAS, NV  PTCLDY    47  12  24 SW17G28   29.59R
ELY, NY        CLOUDY    21  10  62 NW7       29.48R WCI  12
ELKO, NV       CLOUDY    20  17  88 E6        29.56S WCI  12
POCATELLO, ID  PTCLDY    22  18  85 SW10      29.56R WCI  11
BURLEY, ID     PTCLDY    17  11  77 SW8       29.58R WCI   7
EVANSTON, WY   CLOUDY    19  16  88 NE7       29.35S WCI  10
ROCK SPRINGS,  LGT SNOW   3  -2  79 NE20      29.42F VSB 3/4 WCI -18

$$



USA.gov is the U.S. government's official web portal to all federal, state and local government web resources and services.